Location: Unspecified
(41.9031°N, 12.4386°E)
Time: 17:46:22
(UTC+02:00)

ISS - Pass Details

Date: 24 May 2020
Orbit: 417 x 420 km, 51.6° (Epoch: 26 May)

Event Time Altitude Azimuth Distance (km) Brightness Sun altitude
Rises 23:08:08 0° 307° (NW) 2,367 1.2 -21.4°
Reaches altitude 10° 23:10:35 10° 324° (NW) 1,502 0.2 -21.6°
Maximum altitude 23:13:14 21° 16° (NNE) 999 -1.4 -21.8°
Enters shadow 23:14:42 16° 51° (NE) 1,173 -1.4 -21.9°
